Anzahl Datensätze: 288
min. Temperatur: 15.7 °C
max. Temperatur: 29.1 °C
max. Windgeschwindigkeit: 25.9 km/h
Niederschlagsumme: 0.0 mm
| Datum |
Zeit |
Temp °C |
Feuchte % |
Taupunkt °C |
Luftdruck hPa |
Wind km/h |
Windrichtung |
Strahlung w/m² |
Niederschlag mm |
|---|---|---|---|---|---|---|---|---|---|
| 04.09.2020 | 00:04 | 17.2 | 75 | 12.7 | 1022.1 | 1.4 | SSW | 0 | 0.0 |
| 04.09.2020 | 00:08 | 17.1 | 76 | 12.8 | 1022.1 | 1.4 | SSW | 0 | 0.0 |
| 04.09.2020 | 00:14 | 17.0 | 76 | 12.7 | 1022.1 | 3.2 | SW | 0 | 0.0 |
| 04.09.2020 | 00:18 | 17.0 | 76 | 12.7 | 1022.1 | 3.2 | SW | 0 | 0.0 |
| 04.09.2020 | 00:24 | 16.9 | 76 | 12.6 | 1022.2 | 3.2 | SW | 0 | 0.0 |
| 04.09.2020 | 00:28 | 16.9 | 76 | 12.6 | 1022.1 | 3.2 | SW | 0 | 0.0 |
| 04.09.2020 | 00:34 | 17.0 | 76 | 12.7 | 1022.2 | 3.2 | SW | 0 | 0.0 |
| 04.09.2020 | 00:38 | 17.0 | 76 | 12.7 | 1022.2 | 3.2 | SW | 0 | 0.0 |
| 04.09.2020 | 00:44 | 17.0 | 76 | 12.7 | 1022.2 | 3.2 | SW | 0 | 0.0 |
| 04.09.2020 | 00:48 | 17.0 | 76 | 12.7 | 1022.3 | 3.2 | SW | 0 | 0.0 |
| 04.09.2020 | 00:54 | 17.1 | 76 | 12.8 | 1022.3 | 3.2 | SW | 0 | 0.0 |
| 04.09.2020 | 00:58 | 17.1 | 76 | 12.8 | 1022.3 | 3.2 | SW | 0 | 0.0 |
| 04.09.2020 | 01:04 | 17.1 | 76 | 12.8 | 1022.3 | 3.2 | SW | 0 | 0.0 |
| 04.09.2020 | 01:08 | 17.2 | 76 | 12.9 | 1022.3 | 3.2 | SSW | 0 | 0.0 |
| 04.09.2020 | 01:14 | 17.3 | 75 | 12.8 | 1022.3 | 4.7 | SSW | 0 | 0.0 |
| 04.09.2020 | 01:18 | 17.4 | 74 | 12.7 | 1022.4 | 4.7 | W | 0 | 0.0 |
| 04.09.2020 | 01:24 | 17.7 | 74 | 13.0 | 1022.3 | 4.7 | SW | 0 | 0.0 |
| 04.09.2020 | 01:28 | 17.8 | 73 | 12.9 | 1022.4 | 6.5 | SSW | 0 | 0.0 |
| 04.09.2020 | 01:34 | 17.8 | 73 | 12.9 | 1022.4 | 4.7 | SW | 0 | 0.0 |
| 04.09.2020 | 01:38 | 17.9 | 72 | 12.8 | 1022.4 | 4.7 | SW | 0 | 0.0 |
| 04.09.2020 | 01:44 | 17.9 | 72 | 12.8 | 1022.4 | 6.5 | SW | 0 | 0.0 |
| 04.09.2020 | 01:48 | 17.9 | 72 | 12.8 | 1022.4 | 6.5 | SW | 0 | 0.0 |
| 04.09.2020 | 01:54 | 17.9 | 72 | 12.8 | 1022.3 | 6.5 | SSW | 0 | 0.0 |
| 04.09.2020 | 01:58 | 17.9 | 72 | 12.8 | 1022.3 | 4.7 | WSW | 0 | 0.0 |
| 04.09.2020 | 02:04 | 17.8 | 73 | 12.9 | 1022.3 | 6.5 | SW | 0 | 0.0 |
| 04.09.2020 | 02:08 | 17.8 | 73 | 12.9 | 1022.3 | 6.5 | WSW | 0 | 0.0 |
| 04.09.2020 | 02:14 | 17.9 | 72 | 12.8 | 1022.3 | 6.5 | SSW | 0 | 0.0 |
| 04.09.2020 | 02:18 | 17.9 | 72 | 12.8 | 1022.3 | 4.7 | SW | 0 | 0.0 |
| 04.09.2020 | 02:24 | 17.9 | 71 | 12.6 | 1022.3 | 4.7 | SW | 0 | 0.0 |
| 04.09.2020 | 02:28 | 18.0 | 71 | 12.7 | 1022.3 | 4.7 | WSW | 0 | 0.0 |
| 04.09.2020 | 02:34 | 17.9 | 71 | 12.6 | 1022.3 | 4.7 | SW | 0 | 0.0 |
| 04.09.2020 | 02:38 | 17.9 | 71 | 12.6 | 1022.3 | 4.7 | SW | 0 | 0.0 |
| 04.09.2020 | 02:44 | 17.9 | 72 | 12.8 | 1022.2 | 4.7 | SW | 0 | 0.0 |
| 04.09.2020 | 02:48 | 17.8 | 72 | 12.7 | 1022.2 | 3.2 | SW | 0 | 0.0 |
| 04.09.2020 | 02:54 | 17.7 | 72 | 12.6 | 1022.2 | 3.2 | SW | 0 | 0.0 |
| 04.09.2020 | 02:58 | 17.7 | 73 | 12.8 | 1022.3 | 3.2 | S | 0 | 0.0 |
| 04.09.2020 | 03:04 | 17.7 | 73 | 12.8 | 1022.2 | 3.2 | SW | 0 | 0.0 |
| 04.09.2020 | 03:08 | 17.6 | 73 | 12.7 | 1022.2 | 3.2 | SSW | 0 | 0.0 |
| 04.09.2020 | 03:14 | 17.6 | 73 | 12.7 | 1022.1 | 4.7 | SSW | 0 | 0.0 |
| 04.09.2020 | 03:18 | 17.6 | 74 | 12.9 | 1022.1 | 4.7 | SW | 0 | 0.0 |
| 04.09.2020 | 03:24 | 17.6 | 74 | 12.9 | 1022.1 | 3.2 | SW | 0 | 0.0 |
| 04.09.2020 | 03:28 | 17.5 | 74 | 12.8 | 1022.2 | 3.2 | SW | 0 | 0.0 |
| 04.09.2020 | 03:34 | 17.5 | 74 | 12.8 | 1022.2 | 4.7 | SW | 0 | 0.0 |
| 04.09.2020 | 03:38 | 17.5 | 74 | 12.8 | 1022.1 | 4.7 | SW | 0 | 0.0 |
| 04.09.2020 | 03:44 | 17.5 | 74 | 12.8 | 1022.1 | 3.2 | SSW | 0 | 0.0 |
| 04.09.2020 | 03:48 | 17.5 | 73 | 12.6 | 1022.1 | 3.2 | SW | 0 | 0.0 |
| 04.09.2020 | 03:54 | 17.5 | 73 | 12.6 | 1022.0 | 3.2 | SSW | 0 | 0.0 |
| 04.09.2020 | 03:58 | 17.5 | 74 | 12.8 | 1022.0 | 4.7 | SW | 0 | 0.0 |
| 04.09.2020 | 04:04 | 17.6 | 73 | 12.7 | 1022.0 | 4.7 | S | 0 | 0.0 |
| 04.09.2020 | 04:08 | 17.5 | 73 | 12.6 | 1021.9 | 4.7 | SSW | 0 | 0.0 |
| 04.09.2020 | 04:14 | 17.6 | 73 | 12.7 | 1021.9 | 4.7 | WSW | 0 | 0.0 |
| 04.09.2020 | 04:18 | 17.6 | 72 | 12.5 | 1021.9 | 6.5 | SW | 0 | 0.0 |
| 04.09.2020 | 04:24 | 17.6 | 72 | 12.5 | 1021.9 | 4.7 | SSW | 0 | 0.0 |
| 04.09.2020 | 04:28 | 17.6 | 72 | 12.5 | 1022.0 | 4.7 | SW | 0 | 0.0 |
| 04.09.2020 | 04:34 | 17.5 | 72 | 12.4 | 1021.9 | 4.7 | SW | 0 | 0.0 |
| 04.09.2020 | 04:38 | 17.5 | 72 | 12.4 | 1021.9 | 6.5 | SSW | 0 | 0.0 |
| 04.09.2020 | 04:44 | 17.4 | 72 | 12.3 | 1021.9 | 6.5 | SSW | 0 | 0.0 |
| 04.09.2020 | 04:48 | 17.3 | 73 | 12.4 | 1021.9 | 6.5 | SW | 0 | 0.0 |
| 04.09.2020 | 04:54 | 17.2 | 73 | 12.3 | 1021.9 | 4.7 | SSW | 0 | 0.0 |
| 04.09.2020 | 04:58 | 17.1 | 73 | 12.2 | 1021.9 | 4.7 | S | 0 | 0.0 |
| 04.09.2020 | 05:04 | 17.1 | 73 | 12.2 | 1021.9 | 4.7 | SW | 0 | 0.0 |
| 04.09.2020 | 05:08 | 17.0 | 74 | 12.3 | 1021.9 | 4.7 | SW | 0 | 0.0 |
| 04.09.2020 | 05:14 | 17.0 | 74 | 12.3 | 1021.9 | 6.5 | SSW | 0 | 0.0 |
| 04.09.2020 | 05:18 | 17.0 | 74 | 12.3 | 1021.9 | 6.5 | SSW | 0 | 0.0 |
| 04.09.2020 | 05:24 | 16.9 | 74 | 12.2 | 1021.9 | 4.7 | SW | 0 | 0.0 |
| 04.09.2020 | 05:28 | 16.9 | 74 | 12.2 | 1021.9 | 4.7 | SW | 0 | 0.0 |
| 04.09.2020 | 05:34 | 16.8 | 74 | 12.1 | 1021.9 | 4.7 | SSW | 0 | 0.0 |
| 04.09.2020 | 05:38 | 16.7 | 75 | 12.2 | 1021.9 | 4.7 | SSW | 0 | 0.0 |
| 04.09.2020 | 05:44 | 16.5 | 76 | 12.3 | 1021.9 | 4.7 | SSW | 0 | 0.0 |
| 04.09.2020 | 05:48 | 16.4 | 76 | 12.2 | 1021.9 | 4.7 | SSW | 0 | 0.0 |
| 04.09.2020 | 05:54 | 16.3 | 76 | 12.1 | 1021.9 | 4.7 | S | 0 | 0.0 |
| 04.09.2020 | 05:58 | 16.2 | 77 | 12.2 | 1021.9 | 4.7 | SSW | 0 | 0.0 |
| 04.09.2020 | 06:04 | 16.1 | 77 | 12.1 | 1021.8 | 4.7 | SW | 0 | 0.0 |
| 04.09.2020 | 06:08 | 16.0 | 77 | 12.0 | 1021.9 | 4.7 | S | 0 | 0.0 |
| 04.09.2020 | 06:14 | 15.9 | 78 | 12.1 | 1021.9 | 4.7 | SW | 0 | 0.0 |
| 04.09.2020 | 06:18 | 15.9 | 78 | 12.1 | 1021.9 | 4.7 | SW | 0 | 0.0 |
| 04.09.2020 | 06:24 | 15.9 | 77 | 11.9 | 1022.0 | 4.7 | SW | 0 | 0.0 |
| 04.09.2020 | 06:28 | 15.9 | 77 | 11.9 | 1022.0 | 4.7 | W | 0 | 0.0 |
| 04.09.2020 | 06:34 | 15.8 | 77 | 11.8 | 1022.1 | 4.7 | WSW | 0 | 0.0 |
| 04.09.2020 | 06:38 | 15.8 | 77 | 11.8 | 1022.1 | 4.7 | SW | 0 | 0.0 |
| 04.09.2020 | 06:44 | 15.7 | 78 | 11.9 | 1022.1 | 3.2 | WSW | 5 | 0.0 |
| 04.09.2020 | 06:48 | 15.7 | 78 | 11.9 | 1022.1 | 3.2 | WSW | 5 | 0.0 |
| 04.09.2020 | 06:54 | 15.8 | 78 | 12.0 | 1022.1 | 4.7 | WSW | 9 | 0.0 |
| 04.09.2020 | 06:58 | 15.8 | 78 | 12.0 | 1022.1 | 4.7 | WSW | 14 | 0.0 |
| 04.09.2020 | 07:04 | 16.0 | 78 | 12.2 | 1022.2 | 4.7 | SW | 18 | 0.0 |
| 04.09.2020 | 07:08 | 16.1 | 77 | 12.1 | 1022.2 | 4.7 | SSW | 18 | 0.0 |
| 04.09.2020 | 07:14 | 16.2 | 76 | 12.0 | 1022.2 | 4.7 | WSW | 23 | 0.0 |
| 04.09.2020 | 07:18 | 16.3 | 76 | 12.1 | 1022.3 | 4.7 | SSW | 25 | 0.0 |
| 04.09.2020 | 07:24 | 16.4 | 75 | 12.0 | 1022.4 | 4.7 | SW | 26 | 0.0 |
| 04.09.2020 | 07:28 | 16.6 | 75 | 12.1 | 1022.4 | 4.7 | WSW | 33 | 0.0 |
| 04.09.2020 | 07:34 | 16.7 | 74 | 12.0 | 1022.4 | 4.7 | SSW | 40 | 0.0 |
| 04.09.2020 | 07:38 | 16.7 | 73 | 11.8 | 1022.4 | 4.7 | WSW | 42 | 0.0 |
| 04.09.2020 | 07:44 | 16.8 | 73 | 11.9 | 1022.5 | 4.7 | SW | 49 | 0.0 |
| 04.09.2020 | 07:48 | 16.9 | 72 | 11.8 | 1022.5 | 6.5 | SSW | 58 | 0.0 |
| 04.09.2020 | 07:54 | 17.1 | 72 | 12.0 | 1022.5 | 6.5 | SW | 72 | 0.0 |
| 04.09.2020 | 07:58 | 17.1 | 72 | 12.0 | 1022.6 | 6.5 | SW | 72 | 0.0 |
| 04.09.2020 | 08:04 | 17.3 | 71 | 12.0 | 1022.6 | 4.7 | SSW | 74 | 0.0 |
| 04.09.2020 | 08:08 | 17.3 | 71 | 12.0 | 1022.6 | 4.7 | SW | 77 | 0.0 |
| 04.09.2020 | 08:14 | 17.4 | 70 | 11.9 | 1022.5 | 4.7 | WSW | 97 | 0.0 |
| 04.09.2020 | 08:18 | 17.4 | 70 | 11.9 | 1022.6 | 6.5 | SW | 95 | 0.0 |
| 04.09.2020 | 08:24 | 17.5 | 70 | 12.0 | 1022.6 | 4.7 | SSW | 81 | 0.0 |
| 04.09.2020 | 08:28 | 17.6 | 70 | 12.1 | 1022.6 | 4.7 | WSW | 83 | 0.0 |
| 04.09.2020 | 08:34 | 17.6 | 70 | 12.1 | 1022.7 | 6.5 | SW | 90 | 0.0 |
| 04.09.2020 | 08:38 | 17.6 | 70 | 12.1 | 1022.7 | 6.5 | SW | 95 | 0.0 |
| 04.09.2020 | 08:44 | 17.7 | 71 | 12.4 | 1022.6 | 4.7 | SW | 109 | 0.0 |
| 04.09.2020 | 08:48 | 17.8 | 70 | 12.3 | 1022.7 | 6.5 | WSW | 118 | 0.0 |
| 04.09.2020 | 08:54 | 17.9 | 70 | 12.4 | 1022.6 | 6.5 | WSW | 137 | 0.0 |
| 04.09.2020 | 08:58 | 18.0 | 70 | 12.4 | 1022.7 | 6.5 | SSW | 151 | 0.0 |
| 04.09.2020 | 09:04 | 18.1 | 69 | 12.3 | 1022.8 | 7.9 | SSW | 158 | 0.0 |
| 04.09.2020 | 09:08 | 18.2 | 69 | 12.4 | 1022.8 | 7.9 | SSW | 174 | 0.0 |
| 04.09.2020 | 09:14 | 18.4 | 68 | 12.4 | 1022.8 | 6.5 | SW | 211 | 0.0 |
| 04.09.2020 | 09:18 | 18.6 | 68 | 12.6 | 1022.9 | 6.5 | WSW | 172 | 0.0 |
| 04.09.2020 | 09:24 | 18.7 | 67 | 12.4 | 1022.9 | 6.5 | S | 190 | 0.0 |
| 04.09.2020 | 09:28 | 18.8 | 67 | 12.5 | 1022.9 | 6.5 | SW | 223 | 0.0 |
| 04.09.2020 | 09:34 | 19.1 | 66 | 12.6 | 1022.9 | 7.9 | SW | 213 | 0.0 |
| 04.09.2020 | 09:38 | 19.2 | 66 | 12.7 | 1022.9 | 7.9 | SW | 209 | 0.0 |
| 04.09.2020 | 09:44 | 19.4 | 66 | 12.9 | 1022.9 | 7.9 | S | 260 | 0.0 |
| 04.09.2020 | 09:48 | 19.6 | 65 | 12.8 | 1023.0 | 6.5 | S | 230 | 0.0 |
| 04.09.2020 | 09:54 | 19.9 | 64 | 12.9 | 1023.0 | 6.5 | WSW | 188 | 0.0 |
| 04.09.2020 | 09:58 | 20.0 | 64 | 13.0 | 1023.0 | 6.5 | SSW | 179 | 0.0 |
| 04.09.2020 | 10:04 | 20.6 | 62 | 13.1 | 1022.9 | 6.5 | SSW | 76 | 0.0 |
| 04.09.2020 | 10:08 | 20.7 | 61 | 12.9 | 1022.9 | 6.5 | WSW | 63 | 0.0 |
| 04.09.2020 | 10:14 | 21.1 | 60 | 13.0 | 1022.9 | 7.9 | SW | 63 | 0.0 |
| 04.09.2020 | 10:18 | 21.2 | 59 | 12.9 | 1022.9 | 6.5 | SW | 67 | 0.0 |
| 04.09.2020 | 10:24 | 21.6 | 57 | 12.7 | 1023.0 | 7.9 | SSO | 67 | 0.0 |
| 04.09.2020 | 10:28 | 21.7 | 56 | 12.5 | 1022.9 | 7.9 | WSW | 355 | 0.0 |
| 04.09.2020 | 10:34 | 22.0 | 55 | 12.5 | 1022.9 | 9.7 | SSW | 554 | 0.0 |
| 04.09.2020 | 10:38 | 22.2 | 53 | 12.2 | 1022.9 | 11.2 | SSW | 454 | 0.0 |
| 04.09.2020 | 10:44 | 22.2 | 54 | 12.4 | 1022.9 | 13.0 | SSW | 454 | 0.0 |
| 04.09.2020 | 10:48 | 22.4 | 53 | 12.3 | 1023.0 | 13.0 | SSW | 81 | 0.0 |
| 04.09.2020 | 10:54 | 22.6 | 52 | 12.2 | 1023.0 | 13.0 | SW | 109 | 0.0 |
| 04.09.2020 | 10:58 | 22.8 | 51 | 12.1 | 1023.0 | 11.2 | WSW | 121 | 0.0 |
| 04.09.2020 | 11:04 | 23.1 | 51 | 12.4 | 1023.1 | 9.7 | SSW | 555 | 0.0 |
| 04.09.2020 | 11:08 | 23.1 | 52 | 12.7 | 1023.1 | 9.7 | S | 656 | 0.0 |
| 04.09.2020 | 11:14 | 23.4 | 51 | 12.7 | 1023.0 | 7.9 | SSW | 628 | 0.0 |
| 04.09.2020 | 11:18 | 23.7 | 51 | 13.0 | 1022.7 | 7.9 | SW | 629 | 0.0 |
| 04.09.2020 | 11:24 | 23.8 | 50 | 12.8 | 1022.7 | 7.9 | SW | 642 | 0.0 |
| 04.09.2020 | 11:28 | 23.9 | 50 | 12.8 | 1022.7 | 7.9 | SSW | 652 | 0.0 |
| 04.09.2020 | 11:34 | 24.2 | 50 | 13.1 | 1022.8 | 9.7 | SSW | 661 | 0.0 |
| 04.09.2020 | 11:38 | 24.3 | 50 | 13.2 | 1022.8 | 9.7 | SSW | 664 | 0.0 |
| 04.09.2020 | 11:44 | 24.4 | 49 | 13.0 | 1022.7 | 9.7 | SSO | 675 | 0.0 |
| 04.09.2020 | 11:48 | 24.6 | 49 | 13.2 | 1022.7 | 7.9 | SW | 680 | 0.0 |
| 04.09.2020 | 11:54 | 25.0 | 48 | 13.2 | 1022.7 | 6.5 | SW | 694 | 0.0 |
| 04.09.2020 | 11:58 | 25.0 | 48 | 13.2 | 1022.6 | 7.9 | SW | 708 | 0.0 |
| 04.09.2020 | 12:04 | 25.2 | 47 | 13.1 | 1022.7 | 7.9 | SSW | 744 | 0.0 |
| 04.09.2020 | 12:08 | 25.6 | 47 | 13.5 | 1022.6 | 7.9 | SW | 849 | 0.0 |
| 04.09.2020 | 12:14 | 26.0 | 46 | 13.5 | 1022.5 | 7.9 | S | 747 | 0.0 |
| 04.09.2020 | 12:18 | 26.2 | 45 | 13.3 | 1022.5 | 7.9 | SW | 686 | 0.0 |
| 04.09.2020 | 12:24 | 26.0 | 45 | 13.1 | 1022.4 | 7.9 | W | 480 | 0.0 |
| 04.09.2020 | 12:28 | 26.1 | 45 | 13.2 | 1022.3 | 9.7 | S | 492 | 0.0 |
| 04.09.2020 | 12:34 | 25.8 | 45 | 13.0 | 1022.2 | 7.9 | SW | 533 | 0.0 |
| 04.09.2020 | 12:38 | 25.8 | 45 | 13.0 | 1022.2 | 7.9 | SW | 487 | 0.0 |
| 04.09.2020 | 12:44 | 25.8 | 46 | 13.3 | 1022.1 | 6.5 | SW | 338 | 0.0 |
| 04.09.2020 | 12:48 | 25.7 | 46 | 13.2 | 1022.1 | 4.7 | SW | 304 | 0.0 |
| 04.09.2020 | 12:54 | 25.6 | 46 | 13.1 | 1022.0 | 7.9 | SSW | 309 | 0.0 |
| 04.09.2020 | 12:58 | 25.7 | 46 | 13.2 | 1022.0 | 7.9 | W | 336 | 0.0 |
| 04.09.2020 | 13:04 | 25.7 | 46 | 13.2 | 1021.9 | 6.5 | SSW | 427 | 0.0 |
| 04.09.2020 | 13:08 | 25.8 | 46 | 13.3 | 1021.9 | 7.9 | WSW | 304 | 0.0 |
| 04.09.2020 | 13:14 | 25.6 | 47 | 13.5 | 1021.8 | 9.7 | SW | 299 | 0.0 |
| 04.09.2020 | 13:18 | 25.6 | 47 | 13.5 | 1021.8 | 7.9 | WSW | 350 | 0.0 |
| 04.09.2020 | 13:24 | 25.9 | 47 | 13.7 | 1021.7 | 4.7 | SSO | 369 | 0.0 |
| 04.09.2020 | 13:28 | 26.0 | 46 | 13.5 | 1021.6 | 4.7 | S | 301 | 0.0 |
| 04.09.2020 | 13:34 | 26.0 | 46 | 13.5 | 1021.6 | 6.5 | S | 737 | 0.0 |
| 04.09.2020 | 13:38 | 26.4 | 45 | 13.5 | 1021.5 | 6.5 | SSW | 429 | 0.0 |
| 04.09.2020 | 13:44 | 26.9 | 44 | 13.6 | 1021.5 | 7.9 | SW | 244 | 0.0 |
| 04.09.2020 | 13:48 | 26.6 | 44 | 13.3 | 1021.5 | 7.9 | SSW | 468 | 0.0 |
| 04.09.2020 | 13:54 | 27.0 | 45 | 14.1 | 1021.3 | 7.9 | S | 802 | 0.0 |
| 04.09.2020 | 13:58 | 27.3 | 42 | 13.3 | 1021.3 | 7.9 | S | 773 | 0.0 |
| 04.09.2020 | 14:04 | 27.6 | 43 | 13.9 | 1021.2 | 6.5 | S | 756 | 0.0 |
| 04.09.2020 | 14:08 | 28.1 | 41 | 13.6 | 1021.2 | 7.9 | SW | 756 | 0.0 |
| 04.09.2020 | 14:14 | 28.0 | 40 | 13.1 | 1021.2 | 7.9 | SSW | 763 | 0.0 |
| 04.09.2020 | 14:18 | 27.9 | 41 | 13.4 | 1021.1 | 7.9 | SSO | 756 | 0.0 |
| 04.09.2020 | 14:24 | 28.2 | 40 | 13.3 | 1021.1 | 7.9 | WNW | 788 | 0.0 |
| 04.09.2020 | 14:28 | 28.3 | 40 | 13.4 | 1021.1 | 7.9 | S | 795 | 0.0 |
| 04.09.2020 | 14:34 | 28.3 | 39 | 13.0 | 1021.1 | 6.5 | SSW | 654 | 0.0 |
| 04.09.2020 | 14:38 | 28.3 | 38 | 12.6 | 1021.0 | 7.9 | SSW | 492 | 0.0 |
| 04.09.2020 | 14:44 | 28.3 | 39 | 13.0 | 1020.8 | 7.9 | WSW | 626 | 0.0 |
| 04.09.2020 | 14:48 | 28.1 | 39 | 12.8 | 1020.7 | 9.7 | SW | 485 | 0.0 |
| 04.09.2020 | 14:54 | 27.8 | 41 | 13.3 | 1020.6 | 7.9 | SSO | 666 | 0.0 |
| 04.09.2020 | 14:58 | 27.8 | 41 | 13.3 | 1020.6 | 7.9 | S | 788 | 0.0 |
| 04.09.2020 | 15:04 | 28.3 | 39 | 13.0 | 1020.5 | 7.9 | S | 795 | 0.0 |
| 04.09.2020 | 15:08 | 28.4 | 40 | 13.5 | 1020.5 | 9.7 | S | 677 | 0.0 |
| 04.09.2020 | 15:14 | 28.7 | 39 | 13.4 | 1020.5 | 9.7 | S | 712 | 0.0 |
| 04.09.2020 | 15:18 | 28.5 | 41 | 14.0 | 1020.4 | 9.7 | SW | 432 | 0.0 |
| 04.09.2020 | 15:24 | 28.5 | 39 | 13.2 | 1020.4 | 7.9 | W | 768 | 0.0 |
| 04.09.2020 | 15:28 | 29.0 | 38 | 13.2 | 1020.3 | 4.7 | SW | 714 | 0.0 |
| 04.09.2020 | 15:34 | 29.1 | 38 | 13.3 | 1020.3 | 6.5 | S | 657 | 0.0 |
| 04.09.2020 | 15:38 | 28.7 | 38 | 13.0 | 1020.2 | 7.9 | S | 434 | 0.0 |
| 04.09.2020 | 15:44 | 28.4 | 39 | 13.1 | 1020.1 | 6.5 | SW | 294 | 0.0 |
| 04.09.2020 | 15:48 | 28.0 | 41 | 13.5 | 1020.1 | 4.7 | SSO | 243 | 0.0 |
| 04.09.2020 | 15:54 | 27.6 | 41 | 13.2 | 1020.1 | 6.5 | S | 320 | 0.0 |
| 04.09.2020 | 15:58 | 27.4 | 41 | 13.0 | 1020.0 | 9.7 | SSO | 292 | 0.0 |
| 04.09.2020 | 16:04 | 27.4 | 42 | 13.4 | 1019.9 | 7.9 | SSO | 265 | 0.0 |
| 04.09.2020 | 16:08 | 27.3 | 42 | 13.3 | 1020.0 | 6.5 | S | 264 | 0.0 |
| 04.09.2020 | 16:14 | 27.3 | 43 | 13.6 | 1019.8 | 4.7 | SSO | 221 | 0.0 |
| 04.09.2020 | 16:18 | 27.3 | 42 | 13.3 | 1019.9 | 3.2 | S | 229 | 0.0 |
| 04.09.2020 | 16:24 | 27.4 | 43 | 13.7 | 1019.8 | 4.7 | SSW | 241 | 0.0 |
| 04.09.2020 | 16:28 | 27.4 | 42 | 13.4 | 1019.7 | 6.5 | S | 216 | 0.0 |
| 04.09.2020 | 16:34 | 27.3 | 42 | 13.3 | 1019.6 | 4.7 | S | 202 | 0.0 |
| 04.09.2020 | 16:38 | 27.2 | 42 | 13.2 | 1019.6 | 4.7 | S | 200 | 0.0 |
| 04.09.2020 | 16:44 | 27.1 | 42 | 13.1 | 1019.6 | 6.5 | SSW | 178 | 0.0 |
| 04.09.2020 | 16:48 | 27.1 | 43 | 13.4 | 1019.6 | 4.7 | S | 178 | 0.0 |
| 04.09.2020 | 16:54 | 27.1 | 43 | 13.4 | 1019.5 | 3.2 | S | 190 | 0.0 |
| 04.09.2020 | 16:58 | 27.2 | 43 | 13.5 | 1019.5 | 3.2 | SSW | 200 | 0.0 |
| 04.09.2020 | 17:04 | 28.1 | 41 | 13.6 | 1019.5 | 1.4 | S | 533 | 0.0 |
| 04.09.2020 | 17:08 | 28.4 | 39 | 13.1 | 1019.4 | 1.4 | SSW | 513 | 0.0 |
| 04.09.2020 | 17:14 | 28.1 | 39 | 12.8 | 1019.4 | 4.7 | SSW | 190 | 0.0 |
| 04.09.2020 | 17:18 | 28.0 | 40 | 13.1 | 1019.4 | 4.7 | SW | 417 | 0.0 |
| 04.09.2020 | 17:24 | 28.2 | 39 | 12.9 | 1019.2 | 3.2 | SW | 287 | 0.0 |
| 04.09.2020 | 17:28 | 27.9 | 40 | 13.1 | 1019.2 | 3.2 | SSW | 169 | 0.0 |
| 04.09.2020 | 17:34 | 27.6 | 40 | 12.8 | 1019.2 | 3.2 | WSW | 109 | 0.0 |
| 04.09.2020 | 17:38 | 27.2 | 41 | 12.8 | 1019.1 | 3.2 | SSW | 90 | 0.0 |
| 04.09.2020 | 17:44 | 26.9 | 41 | 12.5 | 1019.1 | 3.2 | WSW | 84 | 0.0 |
| 04.09.2020 | 17:48 | 26.7 | 43 | 13.1 | 1019.1 | 3.2 | SSW | 86 | 0.0 |
| 04.09.2020 | 17:54 | 26.5 | 44 | 13.3 | 1019.0 | 3.2 | SW | 88 | 0.0 |
| 04.09.2020 | 17:58 | 26.3 | 45 | 13.4 | 1019.1 | 3.2 | SW | 109 | 0.0 |
| 04.09.2020 | 18:04 | 26.3 | 45 | 13.4 | 1019.0 | 1.4 | SW | 123 | 0.0 |
| 04.09.2020 | 18:08 | 26.3 | 45 | 13.4 | 1019.0 | 1.4 | W | 116 | 0.0 |
| 04.09.2020 | 18:14 | 26.3 | 46 | 13.8 | 1018.9 | 0.0 | W | 97 | 0.0 |
| 04.09.2020 | 18:18 | 26.2 | 47 | 14.0 | 1018.9 | 0.0 | W | 88 | 0.0 |
| 04.09.2020 | 18:24 | 26.0 | 47 | 13.8 | 1018.8 | 0.0 | S | 95 | 0.0 |
| 04.09.2020 | 18:28 | 25.9 | 47 | 13.7 | 1018.8 | 0.0 | S | 109 | 0.0 |
| 04.09.2020 | 18:34 | 25.9 | 48 | 14.0 | 1018.7 | 0.0 | S | 105 | 0.0 |
| 04.09.2020 | 18:38 | 25.8 | 48 | 14.0 | 1018.7 | 0.0 | S | 90 | 0.0 |
| 04.09.2020 | 18:44 | 25.8 | 48 | 14.0 | 1018.7 | 0.0 | S | 102 | 0.0 |
| 04.09.2020 | 18:48 | 25.7 | 49 | 14.2 | 1018.6 | 0.0 | S | 67 | 0.0 |
| 04.09.2020 | 18:54 | 25.4 | 52 | 14.8 | 1018.6 | 0.0 | S | 54 | 0.0 |
| 04.09.2020 | 18:58 | 25.2 | 53 | 14.9 | 1018.6 | 1.4 | SSW | 33 | 0.0 |
| 04.09.2020 | 19:04 | 24.8 | 54 | 14.9 | 1018.5 | 1.4 | SSW | 25 | 0.0 |
| 04.09.2020 | 19:08 | 24.6 | 54 | 14.7 | 1018.5 | 1.4 | SSW | 23 | 0.0 |
| 04.09.2020 | 19:14 | 24.1 | 55 | 14.5 | 1018.4 | 1.4 | SSW | 21 | 0.0 |
| 04.09.2020 | 19:18 | 23.9 | 56 | 14.6 | 1018.4 | 1.4 | SSW | 19 | 0.0 |
| 04.09.2020 | 19:24 | 23.6 | 57 | 14.6 | 1018.3 | 0.0 | SSW | 16 | 0.0 |
| 04.09.2020 | 19:28 | 23.3 | 57 | 14.3 | 1018.3 | 0.0 | SSW | 16 | 0.0 |
| 04.09.2020 | 19:34 | 22.9 | 58 | 14.2 | 1018.2 | 0.0 | SSW | 12 | 0.0 |
| 04.09.2020 | 19:38 | 22.7 | 60 | 14.5 | 1018.2 | 0.0 | SSW | 11 | 0.0 |
| 04.09.2020 | 19:44 | 22.5 | 60 | 14.3 | 1018.1 | 0.0 | SSW | 11 | 0.0 |
| 04.09.2020 | 19:48 | 22.3 | 62 | 14.7 | 1018.1 | 0.0 | SSW | 9 | 0.0 |
| 04.09.2020 | 19:54 | 21.9 | 63 | 14.5 | 1018.1 | 0.0 | SSW | 7 | 0.0 |
| 04.09.2020 | 19:58 | 21.7 | 65 | 14.8 | 1018.1 | 0.0 | SSW | 7 | 0.0 |
| 04.09.2020 | 20:04 | 21.4 | 66 | 14.8 | 1018.0 | 0.0 | SSW | 7 | 0.0 |
| 04.09.2020 | 20:08 | 21.2 | 67 | 14.8 | 1018.0 | 0.0 | SSW | 5 | 0.0 |
| 04.09.2020 | 20:14 | 20.9 | 68 | 14.8 | 1018.0 | 0.0 | SSW | 0 | 0.0 |
| 04.09.2020 | 20:18 | 20.7 | 68 | 14.6 | 1018.0 | 0.0 | SSW | 0 | 0.0 |
| 04.09.2020 | 20:24 | 20.5 | 69 | 14.6 | 1018.1 | 0.0 | SSW | 0 | 0.0 |
| 04.09.2020 | 20:28 | 20.3 | 70 | 14.6 | 1018.1 | 0.0 | SSW | 0 | 0.0 |
| 04.09.2020 | 20:34 | 20.2 | 70 | 14.6 | 1018.1 | 0.0 | SSW | 0 | 0.0 |
| 04.09.2020 | 20:38 | 20.0 | 70 | 14.4 | 1018.2 | 0.0 | SSW | 0 | 0.0 |
| 04.09.2020 | 20:44 | 19.8 | 71 | 14.4 | 1018.2 | 0.0 | SSW | 0 | 0.0 |
| 04.09.2020 | 20:48 | 19.8 | 71 | 14.4 | 1018.2 | 0.0 | SSW | 0 | 0.0 |
| 04.09.2020 | 20:54 | 19.6 | 72 | 14.4 | 1018.2 | 0.0 | SSW | 0 | 0.0 |
| 04.09.2020 | 20:58 | 19.6 | 71 | 14.2 | 1018.2 | 0.0 | SSW | 0 | 0.0 |
| 04.09.2020 | 21:04 | 19.4 | 72 | 14.2 | 1018.3 | 0.0 | SSW | 0 | 0.0 |
| 04.09.2020 | 21:08 | 19.4 | 72 | 14.2 | 1018.2 | 0.0 | SSW | 0 | 0.0 |
| 04.09.2020 | 21:14 | 19.3 | 73 | 14.3 | 1018.1 | 0.0 | SSW | 0 | 0.0 |
| 04.09.2020 | 21:18 | 19.3 | 74 | 14.5 | 1018.2 | 0.0 | SSW | 0 | 0.0 |
| 04.09.2020 | 21:24 | 19.3 | 74 | 14.5 | 1018.1 | 0.0 | SSW | 0 | 0.0 |
| 04.09.2020 | 21:28 | 19.2 | 76 | 14.9 | 1018.1 | 0.0 | SSO | 0 | 0.0 |
| 04.09.2020 | 21:34 | 18.9 | 77 | 14.8 | 1018.0 | 1.4 | SSO | 0 | 0.0 |
| 04.09.2020 | 21:38 | 18.8 | 78 | 14.9 | 1018.1 | 1.4 | SSO | 0 | 0.0 |
| 04.09.2020 | 21:44 | 18.8 | 78 | 14.9 | 1018.0 | 0.0 | SSO | 0 | 0.0 |
| 04.09.2020 | 21:48 | 18.8 | 78 | 14.9 | 1017.9 | 0.0 | SSO | 0 | 0.0 |
| 04.09.2020 | 21:54 | 18.9 | 78 | 15.0 | 1017.9 | 0.0 | SSO | 0 | 0.0 |
| 04.09.2020 | 21:58 | 18.8 | 77 | 14.7 | 1017.9 | 0.0 | SSO | 0 | 0.0 |
| 04.09.2020 | 22:04 | 18.9 | 77 | 14.8 | 1017.9 | 0.0 | SSO | 0 | 0.0 |
| 04.09.2020 | 22:08 | 18.7 | 77 | 14.6 | 1017.9 | 0.0 | SSO | 0 | 0.0 |
| 04.09.2020 | 22:14 | 18.6 | 78 | 14.7 | 1017.9 | 0.0 | SSO | 0 | 0.0 |
| 04.09.2020 | 22:18 | 18.6 | 78 | 14.7 | 1017.9 | 0.0 | SSO | 0 | 0.0 |
| 04.09.2020 | 22:24 | 18.6 | 78 | 14.7 | 1017.9 | 0.0 | SSO | 0 | 0.0 |
| 04.09.2020 | 22:28 | 18.5 | 78 | 14.6 | 1017.9 | 0.0 | SSO | 0 | 0.0 |
| 04.09.2020 | 22:34 | 18.3 | 78 | 14.4 | 1017.9 | 0.0 | SSO | 0 | 0.0 |
| 04.09.2020 | 22:38 | 18.2 | 79 | 14.5 | 1017.9 | 0.0 | SSO | 0 | 0.0 |
| 04.09.2020 | 22:44 | 18.0 | 80 | 14.5 | 1017.8 | 0.0 | SSO | 0 | 0.0 |
| 04.09.2020 | 22:48 | 17.9 | 80 | 14.4 | 1017.8 | 0.0 | SSO | 0 | 0.0 |
| 04.09.2020 | 22:54 | 17.8 | 81 | 14.5 | 1017.7 | 0.0 | SSO | 0 | 0.0 |
| 04.09.2020 | 22:58 | 17.6 | 81 | 14.3 | 1017.7 | 0.0 | SSO | 0 | 0.0 |
| 04.09.2020 | 23:04 | 17.3 | 83 | 14.4 | 1017.8 | 0.0 | SSO | 0 | 0.0 |
| 04.09.2020 | 23:08 | 17.2 | 83 | 14.3 | 1017.7 | 0.0 | SSO | 0 | 0.0 |
| 04.09.2020 | 23:14 | 17.1 | 83 | 14.2 | 1017.7 | 0.0 | SSO | 0 | 0.0 |
| 04.09.2020 | 23:18 | 16.9 | 84 | 14.2 | 1017.7 | 0.0 | SSO | 0 | 0.0 |
| 04.09.2020 | 23:24 | 16.8 | 84 | 14.1 | 1017.6 | 0.0 | SSO | 0 | 0.0 |
| 04.09.2020 | 23:28 | 16.8 | 84 | 14.1 | 1017.5 | 0.0 | SSO | 0 | 0.0 |
| 04.09.2020 | 23:34 | 16.9 | 84 | 14.2 | 1017.4 | 0.0 | SSO | 0 | 0.0 |
| 04.09.2020 | 23:38 | 16.8 | 84 | 14.1 | 1017.4 | 0.0 | SSO | 0 | 0.0 |
| 04.09.2020 | 23:44 | 16.6 | 84 | 13.9 | 1017.4 | 0.0 | SSO | 0 | 0.0 |
| 04.09.2020 | 23:48 | 16.3 | 85 | 13.8 | 1017.4 | 0.0 | SSO | 0 | 0.0 |
| 04.09.2020 | 23:54 | 16.2 | 87 | 14.0 | 1017.3 | 0.0 | SSO | 0 | 0.0 |
| 04.09.2020 | 23:58 | 16.1 | 87 | 13.9 | 1017.3 | 0.0 | SSO | 0 | 0.0 |